Location: Wells
(51.2093°N, 2.6446°W)
Time: 08:04:36
(UTC+01:00)

SO-50 - Pass Details

Date: 22 March 2026
Orbit: 567 x 673 km, 64.6° (Epoch: 17 April)

Event Time Altitude Azimuth Distance (km) Brightness Sun altitude
Rises 22:03:43 0° 315° (NW) 3,025 ? -30.7°
Reaches altitude 10° 22:06:27 10° 329° (NNW) 2,114 ? -31.0°
Enters shadow 22:10:03 24° 17° (NNE) 1,408 ? -31.3°
